Location: Gwatt
(46.7204°N, 7.6223°E)
Time: 00:18:38
(UTC+00:00)

Envisat - Pass Details

Date: 04 December 2020
Orbit: 764 x 766 km, 98.1° (Epoch: 19 January)

Event Time Altitude Azimuth Distance (km) Brightness Sun altitude
Rises 16:23:28 0° 165° (SSE) 3,220 6.4 -7.0°
Reaches altitude 10° 16:25:45 10° 165° (SSE) 2,298 5.6 -7.4°
Maximum altitude 16:30:50 89° 248° (WSW) 773 3.1 -8.2°
Drops below altitude 10° 16:35:58 10° 346° (NNW) 2,315 5.4 -9.0°
Sets 16:38:16 0° 347° (NNW) 3,246 6.1 -9.3°
